Location: Briis
(48.6240°N, 2.1211°E)
Time: 16:04:13
(UTC+00:00)

CZ-4C R/B - Pass Details

Date: 25 September 2020
Orbit: 407 x 492 km, 97.7° (Epoch: 22 October)

Event Time Altitude Azimuth Distance (km) Brightness Sun altitude
Exits shadow 03:19:49 58° 87° (E) 563 3.5 -23.6°
Maximum altitude 03:19:59 59° 73° (ENE) 559 3.5 -23.6°
Drops below altitude 10° 03:23:27 10° 354° (N) 1,642 6.0 -23.1°
Sets 03:25:30 0° 350° (N) 2,509 6.9 -22.8°
